FW7360 Weather Reports


time (UTC)temp
C
wind
direction
speed
KPH
gust
KPH
rain 1hr
cm
rain 24hr
cm
rain mn
cm
humidity
%
barometer
mb
20260507191959 20 162 11.3 14.5 0.00 0.00 0.00 45 1012.9
20260507191455 20 178 16.1 24.1 0.00 0.00 0.00 46 1013.2
20260507190952 19 217 12.9 20.9 0.00 0.00 0.00 45 1013.2
20260507190449 19 219 17.7 25.7 0.00 0.00 0.00 43 1013.4
20260507185948 18 204 12.9 17.7 0.00 0.00 0.00 46 1013.4
20260507185445 19 159 14.5 25.7 0.00 0.00 0.00 46 1013.5
20260507184941 18 191 12.9 25.7 0.00 0.00 0.00 48 1013.4
20260507184439 18 161 14.5 24.1 0.00 0.00 0.00 46 1013.7
20260507183937 18 194 17.7 22.5 0.00 0.00 0.00 47 1013.7
20260507183434 18 228 9.7 22.5 0.00 0.00 0.00 47 1013.6
20260507182931 18 178 20.9 33.8 0.00 0.00 0.00 48 1013.6
20260507182427 18 192 6.4 22.5 0.00 0.00 0.00 51 1013.9
20260507181923 18 178 22.5 27.4 0.00 0.00 0.00 47 1013.6
20260507181419 18 173 12.9 22.5 0.00 0.00 0.00 48 1013.7
20260507180916 18 214 8.0 27.4 0.00 0.00 0.00 51 1013.9
20260507180413 18 148 17.7 25.7 0.00 0.00 0.00 49 1014.0
20260507175909 18 222 20.9 25.7 0.00 0.00 0.00 49 1013.9
20260507175406 18 215 14.5 27.4 0.00 0.00 0.00 49 1013.9
20260507174903 18 188 11.3 24.1 0.00 0.00 0.00 48 1014.1
20260507174400 18 185 22.5 27.4 0.00 0.00 0.00 50 1014.4
20260507173858 18 221 8.0 14.5 0.00 0.00 0.00 52 1014.3
20260507173355 17 173 19.3 27.4 0.00 0.00 0.00 50 1014.3
20260507172851 17 203 12.9 29.0 0.00 0.00 0.00 51 1014.6
20260507172348 17 193 16.1 25.7 0.00 0.00 0.00 53 1014.7
20260507171844 17 264 17.7 25.7 0.00 0.00 0.00 51 1014.7
20260507171340 17 233 11.3 16.1 0.00 0.00 0.00 53 1014.8
20260507170838 17 205 14.5 25.7 0.00 0.00 0.00 51 1015.2
20260507170334 17 184 14.5 20.9 0.00 0.00 0.00 53 1014.9
20260507165830 17 185 24.1 33.8 0.00 0.00 0.00 50 1015.3
20260507165326 17 227 11.3 20.9 0.00 0.00 0.00 53 1014.9
20260507164822 17 154 14.5 22.5 0.00 0.00 0.00 52 1015.2
20260507164320 16 179 12.9 16.1 0.00 0.00 0.00 53 1015.2
20260507163817 16 219 11.3 25.7 0.00 0.00 0.00 53 1015.4
20260507163314 16 220 12.9 17.7 0.00 0.00 0.00 55 1015.7
20260507162810 16 221 25.7 29.0 0.00 0.00 0.00 52 1015.4
20260507162307 16 225 14.5 27.4 0.00 0.00 0.00 54 1015.4
20260507161803 16 140 14.5 20.9 0.00 0.00 0.00 54 1015.6
20260507161300 16 259 11.3 16.1 0.00 0.00 0.00 56 1015.8
20260507160756 16 214 14.5 20.9 0.00 0.00 0.00 55 1015.9
20260507160252 16 197 17.7 29.0 0.00 0.00 0.00 54 1015.8
20260507155748 16 189 16.1 24.1 0.00 0.00 0.00 55 1016.0
20260507155244 16 182 8.0 20.9 0.00 0.00 0.00 55 1015.9
20260507154741 15 217 11.3 29.0 0.00 0.00 0.00 57 1016.1
20260507154239 15 185 14.5 22.5 0.00 0.00 0.00 57 1015.9
20260507153735 15 177 14.5 20.9 0.00 0.00 0.00 57 1016.0
20260507153232 16 228 8.0 16.1 0.00 0.00 0.00 58 1015.9
20260507152728 15 241 11.3 24.1 0.00 0.00 0.00 58 1016.1
20260507152225 15 203 8.0 20.9 0.00 0.00 0.00 61 1016.1
20260507151721 15 247 8.0 17.7 0.00 0.00 0.00 61 1016.0
20260507151217 15 215 17.7 24.1 0.00 0.00 0.00 59 1016.2
20260507150714 15 202 12.9 17.7 0.00 0.00 0.00 60 1016.3
20260507150211 14 222 16.1 27.4 0.00 0.00 0.00 61 1016.3
20260507145707 13 199 6.4 24.1 0.00 0.00 0.00 63 1016.4
20260507145204 14 208 9.7 17.7 0.00 0.00 0.00 62 1016.4
20260507144700 13 220 8.0 20.9 0.00 0.00 0.00 66 1016.4
20260507144159 13 205 8.0 17.7 0.00 0.00 0.00 63 1016.6
20260507143655 13 228 8.0 17.7 0.00 0.00 0.00 66 1016.8
20260507143152 13 225 4.8 16.1 0.00 0.00 0.00 66 1016.7
20260507142647 13 249 17.7 22.5 0.00 0.00 0.00 65 1016.8
20260507142145 12 207 4.8 12.9 0.00 0.00 0.00 68 1016.6
20260507141641 12 261 9.7 16.1 0.00 0.00 0.00 69 1016.7
20260507141138 12 212 6.4 17.7 0.00 0.00 0.00 69 1016.7
20260507140634 12 211 11.3 14.5 0.00 0.00 0.00 69 1017.1
20260507140132 12 232 11.3 12.9 0.00 0.00 0.00 69 1016.8
20260507135629 11 237 9.7 12.9 0.00 0.00 0.00 70 1016.8
20260507135126 11 228 16.1 22.5 0.00 0.00 0.00 69 1016.6
20260507134622 11 210 4.8 11.3 0.00 0.00 0.00 72 1016.8
20260507134118 11 224 6.4 11.3 0.00 0.00 0.00 72 1016.9
20260507133614 11 219 9.7 14.5 0.00 0.00 0.00 73 1016.9
20260507133112 11 209 11.3 12.9 0.00 0.00 0.00 72 1016.8
20260507132609 11 199 8.0 12.9 0.00 0.00 0.00 73 1017.0
20260507132105 10 246 8.0 16.1 0.00 0.00 0.00 74 1016.7
20260507131602 10 223 6.4 11.3 0.00 0.00 0.00 75 1017.1
20260507131100 10 217 12.9 16.1 0.00 0.00 0.00 76 1016.8
20260507130556 10 228 8.0 9.7 0.00 0.00 0.00 78 1017.1
20260507130054 10 203 4.8 14.5 0.00 0.00 0.00 78 1017.0
20260507125553 10 215 9.7 14.5 0.00 0.00 0.00 77 1016.9
20260507125050 9 217 3.2 9.7 0.00 0.00 0.00 79 1016.7
20260507124546 9 219 1.6 4.8 0.00 0.00 0.00 80 1016.8
20260507124044 9 153 4.8 8.0 0.00 0.00 0.00 80 1016.9
20260507123542 8 233 6.4 8.0 0.00 0.00 0.00 81 1017.1
20260507123038 8 295 4.8 8.0 0.00 0.00 0.00 82 1017.0
20260507122534 8 178 4.8 8.0 0.00 0.00 0.00 82 1016.9
20260507122030 8 164 3.2 8.0 0.00 0.00 0.00 84 1017.0
20260507121525 8 225 3.2 4.8 0.00 0.00 0.00 83 1017.0
20260507121021 7 240 3.2 4.8 0.00 0.00 0.00 84 1017.0
20260507120518 7 207 1.6 3.2 0.00 0.00 0.00 85 1016.9
20260507120015 7 275 1.6 1.6 0.00 0.00 0.00 86 1017.1
20260507115511 6 233 1.6 3.2 0.00 0.00 0.00 86 1017.0
20260507115007 6 239 1.6 1.6 0.00 0.00 0.00 87 1017.1
20260507114503 6 240 0.0 1.6 0.00 0.00 0.00 87 1016.8
20260507114000 6 234 1.6 3.2 0.00 0.00 0.00 88 1016.9
20260507113457 6 238 0.0 1.6 0.00 0.00 0.00 88 1017.0
20260507112955 6 252 1.6 4.8 0.00 0.00 0.00 88 1017.1
20260507112452 6 226 3.2 3.2 0.00 0.00 0.00 88 1017.0
20260507111949 6 234 1.6 3.2 0.00 0.00 0.00 88 1016.9
20260507111446 6 243 1.6 3.2 0.00 0.00 0.00 88 1016.9
20260507110942 6 244 1.6 3.2 0.00 0.00 0.00 88 1016.9
20260507110439 6 246 1.6 3.2 0.00 0.00 0.00 87 1016.9
20260507105935 6 245 0.0 3.2 0.00 0.00 0.00 87 1017.0
20260507105432 6 244 1.6 3.2 0.00 0.00 0.00 87 1017.0
20260507104929 6 232 1.6 1.6 0.00 0.00 0.00 88 1016.7
20260507104426 6 253 1.6 3.2 0.00 0.00 0.00 89 1017.0
20260507103926 5 231 3.2 3.2 0.00 0.00 0.00 90 1017.0
20260507103424 5 216 1.6 3.2 0.00 0.00 0.00 90 1016.9
20260507102920 5 229 1.6 3.2 0.00 0.00 0.00 91 1016.8
20260507102417 5 233 1.6 1.6 0.00 0.00 0.00 92 1016.8
20260507101913 5 238 0.0 1.6 0.00 0.00 0.00 92 1016.9
20260507101409 5 238 1.6 1.6 0.00 0.00 0.00 92 1017.0
20260507100905 5 237 1.6 1.6 0.00 0.00 0.00 91 1016.9
20260507100403 5 237 1.6 1.6 0.00 0.00 0.00 91 1017.0
20260507095901 5 238 1.6 1.6 0.00 0.00 0.00 91 1017.1
20260507095357 5 238 1.6 1.6 0.00 0.00 0.00 90 1017.3
20260507094855 5 238 0.0 1.6 0.00 0.00 0.00 91 1017.2
20260507094351 5 236 1.6 1.6 0.00 0.00 0.00 91 1017.1
20260507093848 5 242 1.6 1.6 0.00 0.00 0.00 90 1017.2
20260507093346 5 242 1.6 1.6 0.00 0.00 0.00 90 1017.0
20260507092844 5 242 0.0 1.6 0.00 0.00 0.00 90 1017.1
20260507092340 5 242 0.0 1.6 0.00 0.00 0.00 89 1017.1
20260507091837 5 242 0.0 1.6 0.00 0.00 0.00 89 1017.1
20260507091333 6 242 0.0 0.0 0.00 0.00 0.00 89 1017.3
20260507090829 5 233 1.6 1.6 0.00 0.00 0.00 90 1017.3
20260507090325 5 240 0.0 1.6 0.00 0.00 0.00 89 1017.3
20260507085823 5 240 0.0 1.6 0.00 0.00 0.00 89 1017.4
20260507085319 6 242 1.6 1.6 0.00 0.00 0.00 89 1017.2
20260507084817 6 239 1.6 1.6 0.00 0.00 0.00 88 1017.4
20260507084313 6 241 1.6 1.6 0.00 0.00 0.00 88 1017.3
20260507083810 6 241 0.0 1.6 0.00 0.00 0.00 87 1017.3
20260507083307 6 222 1.6 3.2 0.00 0.00 0.00 87 1017.4
20260507082803 6 240 1.6 1.6 0.00 0.00 0.00 88 1017.4
20260507082259 6 237 1.6 3.2 0.00 0.00 0.00 88 1017.5
20260507081756 6 227 1.6 3.2 0.00 0.00 0.00 89 1017.6
20260507081252 6 232 1.6 1.6 0.00 0.00 0.00 89 1017.4
20260507080749 6 237 1.6 1.6 0.00 0.00 0.00 89 1017.3
20260507080245 6 242 1.6 1.6 0.00 0.00 0.00 88 1017.6
20260507075740 6 243 1.6 1.6 0.00 0.00 0.00 87 1017.4
20260507075237 6 236 1.6 3.2 0.00 0.00 0.00 85 1017.6
20260507074733 6 241 3.2 3.2 0.00 0.00 0.00 85 1017.6
20260507074232 6 240 1.6 1.6 0.00 0.00 0.00 85 1017.5
20260507073728 7 241 1.6 1.6 0.00 0.00 0.00 82 1017.6
20260507073224 7 237 1.6 1.6 0.00 0.00 0.00 82 1017.6
20260507072722 7 239 1.6 3.2 0.00 0.00 0.00 81 1017.6
20260507072219 7 241 1.6 3.2 0.00 0.00 0.00 81 1017.8
20260507071717 7 226 1.6 3.2 0.00 0.00 0.00 81 1017.8
20260507071213 7 226 1.6 3.2 0.00 0.00 0.00 80 1017.7
20260507070710 7 238 1.6 4.8 0.00 0.00 0.00 80 1017.7
20260507070207 7 203 1.6 4.8 0.00 0.00 0.00 80 1017.9
20260507065703 7 235 1.6 3.2 0.00 0.00 0.00 80 1017.9
20260507065200 7 240 1.6 3.2 0.00 0.00 0.00 80 1017.8
20260507064657 7 233 1.6 3.2 0.00 0.00 0.00 80 1017.7
20260507064156 7 235 1.6 1.6 0.00 0.00 0.00 81 1018.2
20260507063653 7 244 1.6 3.2 0.00 0.00 0.00 79 1018.1
20260507063150 7 224 1.6 1.6 0.00 0.00 0.00 79 1018.1
20260507062647 7 234 1.6 3.2 0.00 0.00 0.00 78 1018.2
20260507062145 7 233 1.6 1.6 0.00 0.00 0.00 78 1018.1
20260507061642 8 234 1.6 3.2 0.00 0.00 0.00 76 1018.1
20260507061140 8 235 1.6 1.6 0.00 0.00 0.00 77 1018.2
20260507060638 8 237 1.6 1.6 0.00 0.00 0.00 75 1018.3
20260507060133 8 241 1.6 1.6 0.00 0.00 0.00 73 1018.2
20260507055629 8 243 1.6 3.2 0.00 0.00 0.00 71 1018.2
20260507055125 9 238 1.6 3.2 0.00 0.00 0.00 71 1018.2
20260507054621 9 237 1.6 3.2 0.00 0.00 0.00 70 1018.2
20260507054119 9 243 1.6 4.8 0.00 0.00 0.00 70 1018.3
20260507053617 9 229 3.2 4.8 0.00 0.00 0.00 70 1018.5
20260507053115 10 219 1.6 4.8 0.00 0.00 0.00 68 1018.6
20260507052613 10 233 3.2 3.2 0.00 0.00 0.00 68 1018.5
20260507052109 10 203 3.2 4.8 0.00 0.00 0.00 66 1018.5
20260507051607 10 203 3.2 3.2 0.00 0.00 0.00 66 1018.2
20260507051103 10 222 3.2 4.8 0.00 0.00 0.00 65 1018.3
20260507050600 10 226 1.6 3.2 0.00 0.00 0.00 67 1018.6
20260507050056 10 197 3.2 8.0 0.00 0.00 0.00 64 1018.5
20260507045553 10 248 1.6 3.2 0.00 0.00 0.00 65 1018.5
20260507045051 10 231 1.6 3.2 0.00 0.00 0.00 64 1018.5
20260507044547 10 233 1.6 3.2 0.00 0.00 0.00 64 1018.6
20260507044044 10 232 3.2 3.2 0.00 0.00 0.00 64 1018.5
20260507043540 10 229 3.2 3.2 0.00 0.00 0.00 63 1018.3
20260507043038 10 222 3.2 4.8 0.00 0.00 0.00 63 1018.3
20260507042533 10 233 1.6 1.6 0.00 0.00 0.00 65 1018.3
20260507042029 10 253 0.0 1.6 0.00 0.00 0.00 65 1018.3
20260507041526 10 250 3.2 3.2 0.00 0.00 0.00 65 1018.6
20260507041023 9 236 1.6 3.2 0.00 0.00 0.00 67 1018.5
20260507040519 8 243 1.6 1.6 0.00 0.00 0.00 70 1018.6
20260507040015 7 257 0.0 1.6 0.00 0.00 0.00 81 1018.3
20260507035512 7 259 0.0 0.0 0.00 0.00 0.00 87 1018.3
20260507035008 7 259 0.0 0.0 0.00 0.00 0.00 85 1018.1
20260507034505 7 259 0.0 0.0 0.00 0.00 0.00 84 1018.5
20260507034003 7 259 0.0 0.0 0.00 0.00 0.00 83 1018.2
20260507033501 7 259 0.0 0.0 0.00 0.00 0.00 83 1018.6
20260507032958 6 259 0.0 0.0 0.00 0.00 0.00 82 1018.7
20260507032454 6 259 0.0 0.0 0.00 0.00 0.00 83 1018.6
20260507031950 7 259 0.0 1.6 0.00 0.00 0.00 84 1018.6
20260507031447 6 259 0.0 0.0 0.00 0.00 0.00 80 1018.3
20260507030944 7 260 0.0 0.0 0.00 0.00 0.00 80 1018.5
20260507030441 6 260 0.0 0.0 0.00 0.00 0.00 80 1018.5
20260507025938 6 226 0.0 0.0 0.00 0.00 0.00 79 1018.7
20260507025436 6 223 0.0 0.0 0.00 0.00 0.00 75 1018.5
20260507024933 6 221 0.0 0.0 0.00 0.00 0.00 77 1018.0
20260507024431 6 260 0.0 1.6 0.00 0.00 0.00 76 1018.2
20260507023926 6 259 0.0 0.0 0.00 0.00 0.00 78 1018.1
20260507023423 6 259 0.0 0.0 0.00 0.00 0.00 77 1018.1
20260507022920 7 259 0.0 0.0 0.00 0.00 0.00 76 1018.1
20260507022417 7 259 0.0 0.0 0.00 0.00 0.00 74 1018.1
20260507021913 7 259 0.0 1.6 0.00 0.00 0.00 73 1018.1
20260507021408 8 255 1.6 1.6 0.00 0.00 0.00 76 1017.8
20260507020906 8 255 0.0 1.6 0.00 0.00 0.00 74 1018.1
20260507020403 8 259 0.0 0.0 0.00 0.00 0.00 66 1018.1
20260507015900 8 249 0.0 0.0 0.00 0.00 0.00 65 1017.9
20260507015358 9 259 0.0 0.0 0.00 0.00 0.00 61 1017.9
20260507014854 10 259 0.0 1.6 0.00 0.00 0.00 60 1017.6
20260507014350 10 255 1.6 3.2 0.00 0.00 0.00 60 1017.8
20260507013847 10 238 1.6 3.2 0.00 0.00 0.00 54 1017.8
20260507013344 10 270 0.0 1.6 0.00 0.00 0.00 55 1017.8
20260507012842 10 277 0.0 0.0 0.00 0.00 0.00 51 1017.5
20260507012337 11 277 0.0 0.0 0.00 0.00 0.00 53 1017.6
20260507011834 12 256 1.6 1.6 0.00 0.00 0.00 47 1017.7
20260507011331 12 233 3.2 3.2 0.00 0.00 0.00 48 1017.6
20260507010826 12 232 1.6 4.8 0.00 0.00 0.00 44 1017.7
20260507010321 12 243 1.6 1.6 0.00 0.00 0.00 42 1017.6
20260507005818 13 260 1.6 1.6 0.00 0.00 0.00 41 1017.7
20260507005316 13 271 0.0 1.6 0.00 0.00 0.00 39 1017.8
20260507004812 14 264 0.0 3.2 0.00 0.00 0.00 38 1017.7
20260507004310 15 276 1.6 3.2 0.00 0.00 0.00 37 1017.5
20260507003807 15 280 0.0 4.8 0.00 0.00 0.00 38 1017.5
20260507003302 15 278 4.8 4.8 0.00 0.00 0.00 36 1017.4
20260507002757 15 260 1.6 4.8 0.00 0.00 0.00 36 1017.6
20260507002254 15 296 1.6 4.8 0.00 0.00 0.00 38 1017.5
20260507001751 15 314 6.4 8.0 0.00 0.00 0.00 37 1017.6
20260507001248 15 288 3.2 4.8 0.00 0.00 0.00 36 1017.6
20260507000744 16 325 1.6 3.2 0.00 0.00 0.00 35 1017.7
20260507000240 15 305 0.0 3.2 0.00 0.00 0.00 35 1017.7
20260506235737 15 292 3.2 4.8 0.00 0.00 0.00 34 1017.6
20260506235232 15 319 4.8 8.0 0.00 0.00 0.00 35 1017.6
20260506234730 15 242 4.8 9.7 0.00 0.00 0.00 33 1017.6
20260506234227 16 295 4.8 8.0 0.00 0.00 0.00 36 1017.5
20260506233724 16 296 3.2 3.2 0.00 0.00 0.00 33 1017.6
20260506233220 15 304 0.0 4.8 0.00 0.00 0.00 34 1017.7
20260506232717 15 281 1.6 8.0 0.00 0.00 0.00 36 1017.9
20260506232212 15 304 4.8 9.7 0.00 0.00 0.00 36 1017.9
20260506231710 15 300 6.4 12.9 0.00 0.00 0.00 36 1017.6
20260506231208 15 332 8.0 11.3 0.00 0.00 0.00 36 1017.8
20260506230704 16 301 3.2 8.0 0.00 0.00 0.00 35 1017.8
20260506230201 15 296 3.2 3.2 0.00 0.00 0.00 35 1017.8
20260506225658 15 4 4.8 9.7 0.00 0.00 0.00 36 1017.9
20260506225155 15 359 6.4 14.5 0.00 0.00 0.00 36 1017.8
20260506224651 16 312 8.0 9.7 0.00 0.00 0.00 36 1017.7
20260506224148 16 293 8.0 9.7 0.00 0.00 0.00 35 1017.7
20260506223645 15 291 3.2 8.0 0.00 0.00 0.00 38 1017.9
20260506223140 16 23 8.0 16.1 0.00 0.00 0.00 36 1017.6
20260506222637 16 3 6.4 9.7 0.00 0.00 0.00 39 1017.8
20260506222133 16 271 4.8 11.3 0.00 0.00 0.00 35 1017.9
20260506221631 16 275 3.2 4.8 0.00 0.00 0.00 35 1017.7
20260506221129 16 301 3.2 8.0 0.00 0.00 0.00 35 1018.0
20260506220625 15 268 6.4 14.5 0.00 0.00 0.00 35 1017.9
20260506220121 15 340 11.3 17.7 0.00 0.00 0.00 34 1017.9
20260506215618 15 296 6.4 9.7 0.00 0.00 0.00 36 1018.0
20260506215113 15 309 3.2 9.7 0.00 0.00 0.00 35 1018.1
20260506214610 15 317 9.7 12.9 0.00 0.00 0.00 36 1018.1
20260506214108 16 337 6.4 8.0 0.00 0.00 0.00 36 1018.3
20260506213606 15 204 1.6 4.8 0.00 0.00 0.00 35 1018.3
20260506213102 15 286 4.8 8.0 0.00 0.00 0.00 36 1018.0
20260506212600 15 283 1.6 8.0 0.00 0.00 0.00 37 1018.3
20260506212054 15 328 3.2 12.9 0.00 0.00 0.00 35 1018.7
20260506211550 15 303 6.4 9.7 0.00 0.00 0.00 34 1018.7
20260506211048 15 343 9.7 16.1 0.00 0.00 0.00 40 1018.6
20260506210544 15 242 4.8 9.7 0.00 0.00 0.00 35 1018.7
20260506210041 14 309 3.2 9.7 0.00 0.00 0.00 36 1018.9
20260506205538 15 305 11.3 16.1 0.00 0.00 0.00 39 1018.9
20260506205033 15 269 4.8 17.7 0.00 0.00 0.00 35 1018.8
20260506204531 15 276 1.6 8.0 0.00 0.00 0.00 35 1019.0
20260506204028 15 322 8.0 12.9 0.00 0.00 0.00 37 1019.0
20260506203527 16 8 19.3 22.5 0.00 0.00 0.00 34 1018.9
20260506203022 15 270 4.8 4.8 0.00 0.00 0.00 39 1019.1
20260506202520 15 316 9.7 14.5 0.00 0.00 0.00 35 1018.9
20260506202016 15 248 6.4 20.9 0.00 0.00 0.00 37 1019.2
20260506201514 15 312 8.0 9.7 0.00 0.00 0.00 35 1019.4
20260506201010 15 345 11.3 17.7 0.00 0.00 0.00 36 1019.5
20260506200506 15 278 1.6 16.1 0.00 0.00 0.00 38 1019.5
20260506200003 15 285 6.4 9.7 0.00 0.00 0.00 34 1019.5
20260506195501 14 264 3.2 11.3 0.00 0.00 0.00 35 1019.7
20260506194956 15 341 16.1 22.5 0.00 0.00 0.00 36 1019.4
20260506194454 15 1 6.4 9.7 0.00 0.00 0.00 40 1019.4
20260506193950 14 272 6.4 8.0 0.00 0.00 0.00 37 1019.7
20260506193448 15 265 6.4 11.3 0.00 0.00 0.00 37 1019.6
20260506192944 15 275 4.8 9.7 0.00 0.00 0.00 37 1019.5
20260506192441 14 325 4.8 8.0 0.00 0.00 0.00 38 1019.7